Change the Weather History Date:

Friday, May 31, 2013

  Actual Average (KOFF) Record (KOFF)
Temperature  
Mean Temperature 66 °F -  
Max Temperature 78 °F 74 °F 96 °F (2000)
Min Temperature 55 °F 55 °F 44 °F (2012)
Cooling Degree Days 2    
Growing Degree Days 16 (Base 50)    
Moisture  
Dew Point 51 °F    
Average Humidity 57    
Maximum Humidity 94    
Minimum Humidity 30    
Precipitation  
Precipitation 0.13 in - - ()
Sea Level Pressure  
Sea Level Pressure 29.67 in    
Wind  
Wind Speed 10 mph (SW)    
Max Wind Speed 20 mph    
Max Gust Speed 29 mph    
Visibility 10 miles    
Events      
Averages and records for this station are not official NWS values.
T = Trace of Precipitation, MM = Missing Value Source: NWS Daily Summary

Daily Weather History Graph

Daily Weather History Graph

Search for Another Location

Airport or City:

Trip Planner

Search our weather history database for the weather conditions in past years. The results will help you decide how hot, cold, wet, or windy it might be!

Date:

Astronomy

May. 31, 2013 Rise Set
Actual Time 5:54 AM CDT 8:48 PM CDT
Civil Twilight 5:21 AM CDT 9:21 PM CDT
Nautical Twilight 4:40 AM CDT 10:03 PM CDT
Astronomical Twilight 3:52 AM CDT 10:51 PM CDT
Moon 1:22 AM CDT (5/31) 1:12 PM CDT (5/31)
Length of Visible Light 16h 00m
Length of Day
14h 54m
Waning Gibbous, 51% of the Moon is Illuminated
May 31
Waning Gibbous
May 31
Last Quarter
Jun 8
New
Jun 16
First Quarter
Jun 23
Full

Hourly Weather History & Observations

Time (CDT) Temp. Dew Point Humidity Pressure Visibility Wind Dir Wind Speed Gust Speed Precip Events Conditions
12:15 AM 60.1 °F 54.9 °F 83% 29.65 in 10.0 mi SSE 9.2 mph - N/A   Clear
12:35 AM 60.8 °F 54.9 °F 81% 29.65 in 10.0 mi SSE 12.7 mph - N/A   Clear
12:55 AM 61.2 °F 54.9 °F 80% 29.66 in 10.0 mi South 16.1 mph - N/A   Clear
1:15 AM 60.4 °F 54.5 °F 81% 29.67 in 10.0 mi South 13.8 mph - N/A   Clear
1:35 AM 61.2 °F 54.0 °F 77% 29.67 in 10.0 mi South 13.8 mph 21.9 mph N/A   Clear
1:55 AM 61.7 °F 53.6 °F 75% 29.67 in 10.0 mi South 13.8 mph - N/A   Scattered Clouds
2:15 AM 60.6 °F 53.6 °F 78% 29.67 in 10.0 mi South 13.8 mph - N/A   Scattered Clouds
2:35 AM 59.7 °F 54.0 °F 81% 29.65 in 10.0 mi South 10.4 mph - N/A   Clear
2:55 AM 58.5 °F 54.7 °F 87% 29.65 in 10.0 mi South 8.1 mph - N/A   Clear
3:15 AM 58.8 °F 55.4 °F 88% 29.64 in 10.0 mi SSE 5.8 mph - N/A   Clear
3:35 AM 59.0 °F 55.6 °F 88% 29.64 in 10.0 mi SSE 5.8 mph - N/A   Clear
3:55 AM 57.6 °F 54.7 °F 90% 29.64 in 10.0 mi Calm Calm - N/A   Clear
4:15 AM 56.8 °F 54.5 °F 92% 29.65 in 10.0 mi Calm Calm - N/A   Clear
4:35 AM 56.3 °F 54.7 °F 94% 29.65 in 10.0 mi NW 5.8 mph - N/A   Clear
4:55 AM 56.3 °F 54.5 °F 94% 29.66 in 10.0 mi Calm Calm - N/A   Clear
5:15 AM 55.8 °F 53.8 °F 93% 29.65 in 10.0 mi Calm Calm - N/A   Clear
5:35 AM 58.5 °F 54.0 °F 85% 29.64 in 10.0 mi SSW 3.5 mph - N/A   Clear
5:55 AM 58.6 °F 53.1 °F 82% 29.63 in 10.0 mi WSW 6.9 mph - N/A   Clear
6:15 AM 59.9 °F 52.0 °F 75% 29.64 in 10.0 mi SW 5.8 mph - N/A   Clear
6:35 AM 58.3 °F 53.4 °F 84% 29.65 in 10.0 mi SSW 5.8 mph - N/A   Clear
6:55 AM 61.9 °F 52.5 °F 71% 29.65 in 10.0 mi SSW 6.9 mph - N/A   Clear
7:15 AM 61.5 °F 53.6 °F 75% 29.66 in 10.0 mi SW 5.8 mph - N/A   Clear
7:35 AM 63.5 °F 53.1 °F 69% 29.67 in 10.0 mi WSW 8.1 mph - N/A   Clear
7:55 AM 64.6 °F 54.1 °F 69% 29.67 in 10.0 mi SW 4.6 mph - N/A   Scattered Clouds
8:15 AM 66.2 °F 53.4 °F 63% 29.68 in 10.0 mi WSW 4.6 mph - N/A   Scattered Clouds
8:35 AM 67.1 °F 51.1 °F 56% 29.69 in 10.0 mi SW 9.2 mph - N/A   Clear
8:55 AM 67.8 °F 50.9 °F 55% 29.69 in 10.0 mi West 9.2 mph - N/A   Clear
9:15 AM 68.5 °F 48.9 °F 49% 29.69 in 10.0 mi WSW 5.8 mph - N/A   Clear
9:35 AM 69.1 °F 48.0 °F 47% 29.70 in 10.0 mi WSW 6.9 mph - N/A   Clear
9:55 AM 70.0 °F 50.0 °F 49% 29.70 in 10.0 mi West 8.1 mph - N/A   Scattered Clouds
10:15 AM 68.4 °F 48.4 °F 49% 29.71 in 10.0 mi WSW 8.1 mph - N/A   Scattered Clouds
10:35 AM 70.2 °F 49.1 °F 47% 29.71 in 10.0 mi West 8.1 mph - N/A   Scattered Clouds
10:55 AM 71.4 °F 50.9 °F 48% 29.71 in 10.0 mi WSW 8.1 mph - N/A   Clear
11:15 AM 72.1 °F 49.8 °F 45% 29.71 in 10.0 mi WSW 8.1 mph - N/A   Clear
11:35 AM 72.7 °F 50.2 °F 45% 29.72 in 10.0 mi WSW 9.2 mph 17.3 mph N/A   Clear
11:55 AM 72.9 °F 49.8 °F 44% 29.72 in 10.0 mi SSW 9.2 mph - N/A   Clear
12:15 PM 73.8 °F 50.9 °F 45% 29.72 in 10.0 mi SSW 11.5 mph - N/A   Clear
12:35 PM 74.3 °F 51.8 °F 45% 29.71 in 10.0 mi South 11.5 mph 18.4 mph N/A   Clear
12:55 PM 75.0 °F 52.3 °F 45% 29.71 in 10.0 mi SSW 16.1 mph 23.0 mph N/A   Clear
1:15 PM 75.6 °F 52.0 °F 44% 29.70 in 10.0 mi SSW 15.0 mph 19.6 mph N/A   Clear
1:35 PM 75.9 °F 50.9 °F 41% 29.70 in 10.0 mi SSW 12.7 mph 23.0 mph N/A   Clear
1:55 PM 76.6 °F 50.0 °F 39% 29.69 in 10.0 mi SSW 17.3 mph 21.9 mph N/A   Clear
2:15 PM 77.5 °F 50.5 °F 39% 29.69 in 10.0 mi SSW 16.1 mph 20.7 mph N/A   Clear
2:35 PM 78.1 °F 50.5 °F 38% 29.68 in 10.0 mi SW 18.4 mph - N/A   Clear
2:55 PM 77.5 °F 48.6 °F 36% 29.68 in 10.0 mi SW 17.3 mph - N/A   Clear
3:15 PM 77.0 °F 49.3 °F 38% 29.68 in 10.0 mi SW 15.0 mph 28.8 mph N/A   Clear
3:35 PM 77.2 °F 49.5 °F 38% 29.67 in 10.0 mi SSW 19.6 mph - N/A   Clear
3:55 PM 76.6 °F 50.4 °F 40% 29.67 in 10.0 mi SW 18.4 mph 23.0 mph N/A   Clear
4:15 PM 77.5 °F 49.8 °F 38% 29.67 in 10.0 mi SSW 12.7 mph - N/A   Clear
4:35 PM 76.5 °F 49.1 °F 38% 29.67 in 10.0 mi SW 15.0 mph 21.9 mph N/A   Clear
4:55 PM 76.1 °F 48.9 °F 38% 29.67 in 10.0 mi SW 18.4 mph - N/A   Clear
5:15 PM 75.6 °F 49.8 °F 40% 29.67 in 10.0 mi SSW 15.0 mph 20.7 mph N/A   Clear
5:35 PM 75.2 °F 47.5 °F 37% 29.65 in 10.0 mi SSW 11.5 mph 17.3 mph N/A   Clear
5:55 PM 77.4 °F 46.6 °F 34% 29.65 in 10.0 mi SW 15.0 mph 20.7 mph N/A   Clear
6:15 PM 77.7 °F 45.1 °F 31% 29.64 in 10.0 mi SSW 17.3 mph 24.2 mph N/A   Clear
6:35 PM 77.5 °F 44.4 °F 31% 29.64 in 10.0 mi SW 15.0 mph 23.0 mph N/A   Clear
6:55 PM 77.4 °F 43.5 °F 30% 29.63 in 10.0 mi SSW 16.1 mph 20.7 mph N/A   Clear
7:15 PM 76.6 °F 45.0 °F 32% 29.64 in 10.0 mi SSW 15.0 mph - N/A   Clear
7:35 PM 75.6 °F 45.0 °F 34% 29.64 in 10.0 mi SSW 13.8 mph - N/A   Clear
7:55 PM 74.7 °F 45.1 °F 35% 29.64 in 10.0 mi SSW 10.4 mph - N/A   Clear
8:15 PM 73.4 °F 47.3 °F 39% 29.64 in 10.0 mi SSW 9.2 mph - N/A   Clear
8:35 PM 71.4 °F 49.1 °F 45% 29.64 in 10.0 mi SW 8.1 mph - N/A   Scattered Clouds
8:55 PM 70.9 °F 48.4 °F 45% 29.64 in 10.0 mi WSW 10.4 mph - N/A   Scattered Clouds
9:15 PM 70.0 °F 48.9 °F 47% 29.66 in 10.0 mi West 8.1 mph - N/A   Clear
9:35 PM 67.6 °F 49.6 °F 52% 29.68 in 10.0 mi West 6.9 mph - N/A   Clear
9:55 PM 68.5 °F 47.3 °F 47% 29.69 in 10.0 mi West 10.4 mph - N/A   Clear
10:15 PM 68.0 °F 47.5 °F 48% 29.71 in 10.0 mi WSW 3.5 mph - N/A   Clear
10:35 PM 66.2 °F 47.8 °F 52% 29.72 in 10.0 mi WSW 5.8 mph - N/A   Clear
10:55 PM 65.5 °F 47.1 °F 51% 29.73 in 10.0 mi WSW 6.9 mph - N/A   Clear
11:15 PM 64.4 °F 46.9 °F 53% 29.73 in 10.0 mi WSW 8.1 mph - N/A   Clear
11:35 PM 61.9 °F 48.6 °F 62% 29.72 in 10.0 mi SW 5.8 mph - N/A   Clear
11:55 PM 63.3 °F 46.2 °F 54% 29.72 in 10.0 mi WSW 12.7 mph 17.3 mph N/A   Clear